HB9TJM-8 Weather Reports


time (UTC)temp
C
wind
direction
speed
KPH
gust
KPH
rain 1hr
cm
rain 24hr
cm
rain mn
cm
humidity
%
barometer
mb
20260505100356 11 138 8.0 9.7 0.00 0.66 0.66 89 1010.6
20260505095849 11 206 11.3 14.5 0.00 0.66 0.66 88 1010.2
20260505095341 11 172 4.8 12.9 0.00 0.66 0.66 88 1010.6
20260505094833 10 184 6.4 12.9 0.00 0.66 0.66 88 1010.7
20260505094326 10 172 6.4 9.7 0.00 0.66 0.66 87 1010.9
20260505093818 10 180 6.4 9.7 0.00 0.66 0.66 87 1010.7
20260505092804 10 187 4.8 6.4 0.00 0.66 0.66 91 1010.6
20260505092256 10 142 4.8 8.0 0.00 0.66 0.66 87 1011.0
20260505091241 10 127 3.2 6.4 0.00 0.66 0.66 89 1011.1
20260505090733 10 139 4.8 6.4 0.00 0.66 0.66 86 1010.7
20260505085717 10 224 0.0 3.2 0.00 0.66 0.66 79 1010.8
20260505085210 10 99 0.0 3.2 0.00 0.66 0.66 85 1010.9
20260505084702 10 62 0.0 6.4 0.00 0.66 0.66 88 1010.3
20260505084154 10 106 4.8 6.4 0.00 0.66 0.66 88 1010.6
20260505083646 10 174 0.0 4.8 0.00 0.66 0.66 88 1011.1
20260505083138 10 162 1.6 6.4 0.00 0.66 0.66 85 1010.8
20260505082631 9 194 3.2 4.8 0.00 0.66 0.66 84 1010.9
20260505082123 9 124 3.2 6.4 0.00 0.66 0.66 84 1011.0
20260505081615 8 24 1.6 3.2 0.00 0.66 0.66 87 1010.7
20260505081108 8 6 3.2 6.4 0.00 0.66 0.66 91 1010.5
20260505080600 8 301 0.0 3.2 0.00 0.66 0.66 92 1010.4
20260505080053 8 51 3.2 3.2 0.00 0.66 0.66 88 1010.4
20260505075545 8 346 3.2 4.8 0.00 0.66 0.66 89 1010.8
20260505075037 8 191 3.2 3.2 0.00 0.66 0.66 89 1010.8
20260505074530 8 46 0.0 3.2 0.00 0.66 0.66 88 1010.7
20260505074023 8 306 1.6 4.8 0.00 0.66 0.66 90 1010.7
20260505073515 8 106 0.0 3.2 0.00 0.66 0.66 92 1010.8
20260505073007 8 11 1.6 3.2 0.00 0.66 0.66 93 1010.7
20260505071952 8 359 1.6 3.2 0.00 0.66 0.66 93 1010.7
20260505070937 8 34 0.0 3.2 0.00 0.66 0.66 92 1010.8
20260505070430 8 26 0.0 3.2 0.00 0.66 0.66 93 1010.7
20260505065415 8 155 3.2 4.8 0.00 0.66 0.66 90 1010.6
20260505064401 8 131 0.0 3.2 0.00 0.66 0.66 96 1010.7
20260505063853 7 236 3.2 3.2 0.03 0.66 0.66 97 1010.9
20260505062838 7 108 0.0 1.6 0.05 0.66 0.66 98 1011.1
20260505062331 7 34 0.0 3.2 0.05 0.66 0.66 98 1011.1
20260505061823 7 23 1.6 4.8 0.05 0.66 0.66 98 1011.0
20260505061315 7 27 0.0 4.8 0.05 0.66 0.66 98 1011.4
20260505060808 7 70 3.2 3.2 0.08 0.66 0.66 98 1011.3
20260505060300 7 11 1.6 3.2 0.08 0.66 0.66 98 1011.6
20260505055752 7 100 4.8 6.4 0.10 0.66 0.66 98 1011.6
20260505055244 7 86 1.6 4.8 0.10 0.66 0.66 98 1011.5
20260505054737 7 111 1.6 4.8 0.13 0.66 0.66 98 1011.8
20260505054229 7 70 3.2 8.0 0.13 0.64 0.64 98 1011.4
20260505053721 7 59 4.8 8.0 0.10 0.64 0.64 98 1011.2
20260505052707 7 341 3.2 4.8 0.10 0.61 0.61 98 1011.4
20260505051652 7 113 1.6 4.8 0.13 0.61 0.61 98 1011.4
20260505050130 7 188 6.4 8.0 0.10 0.56 0.56 98 1011.7
20260505041522 7 220 3.2 6.4 0.08 0.48 0.48 97 1011.8
20260505040508 7 129 1.6 4.8 0.08 0.46 0.46 97 1011.4
20260505040000 7 96 3.2 6.4 0.10 0.46 0.46 97 1011.4
20260505034945 7 63 3.2 6.4 0.13 0.46 0.46 96 1011.3
20260505034438 8 31 3.2 4.8 0.13 0.43 0.43 96 1011.4
20260505033930 8 359 1.6 4.8 0.15 0.41 0.41 96 1011.5
20260505033422 7 248 0.0 3.2 0.15 0.41 0.41 97 1012.0
20260505032915 8 326 1.6 4.8 0.18 0.41 0.41 97 1011.9
20260505032407 8 345 3.2 4.8 0.18 0.41 0.41 97 1012.0
20260505031900 8 316 1.6 4.8 0.18 0.41 0.41 96 1011.8
20260505031351 8 273 1.6 4.8 0.20 0.38 0.38 96 1012.1
20260505030844 8 324 3.2 6.4 0.23 0.38 0.38 97 1012.0
20260505030336 8 339 3.2 4.8 0.23 0.38 0.38 97 1012.3
20260505025828 8 37 1.6 6.4 0.23 0.36 0.36 97 1012.2
20260505025321 8 62 3.2 4.8 0.23 0.33 0.33 96 1012.0
20260505024813 8 134 3.2 6.4 0.20 0.33 0.33 96 1012.0
20260505024305 8 324 3.2 6.4 0.20 0.30 0.30 96 1012.0
20260505023758 8 21 3.2 6.4 0.20 0.28 0.28 96 1012.0
20260505023250 8 310 3.2 4.8 0.18 0.25 0.25 96 1012.2
20260505022743 8 24 1.6 6.4 0.18 0.23 0.23 96 1012.0
20260505022235 8 17 3.2 4.8 0.18 0.23 0.23 96 1012.2
20260505021727 8 13 3.2 6.4 0.18 0.20 0.20 96 1012.3
20260505021220 8 24 1.6 3.2 0.18 0.20 0.20 95 1012.4
20260505020712 8 355 1.6 3.2 0.15 0.18 0.18 95 1012.7
20260505020204 8 62 0.0 3.2 0.15 0.15 0.15 95 1012.6
20260505015657 8 157 0.0 1.6 0.15 0.15 0.15 95 1012.5
20260505015149 8 297 0.0 0.0 0.13 0.13 0.13 95 1012.5
20260505014641 8 345 0.0 3.2 0.10 0.10 0.10 95 1012.8
20260505014134 8 344 0.0 3.2 0.10 0.10 0.10 94 1012.9
20260505013626 8 335 3.2 3.2 0.08 0.08 0.08 95 1012.8
20260505013118 8 326 0.0 3.2 0.08 0.08 0.08 94 1013.0
20260505012611 8 321 1.6 4.8 0.05 0.05 0.05 94 1012.8
20260505012103 8 326 0.0 3.2 0.05 0.05 0.05 94 1012.9
20260505011556 8 337 1.6 4.8 0.05 0.05 0.05 94 1012.9
20260505011049 8 331 3.2 3.2 0.03 0.03 0.03 94 1013.0
20260505010541 8 329 0.0 3.2 0.00 0.00 0.00 94 1013.0
20260505010033 8 324 0.0 3.2 0.00 0.00 0.00 94 1012.5
20260505005526 7 351 1.6 3.2 0.00 0.00 0.00 95 1012.6
20260505005018 7 336 0.0 0.0 0.00 0.00 0.00 95 1012.7
20260505004511 7 354 1.6 3.2 0.00 0.00 0.00 96 1012.9
20260505004004 7 116 0.0 1.6 0.00 0.00 0.00 97 1013.0
20260505002950 7 76 1.6 3.2 0.00 0.00 0.00 97 1012.6
20260505001432 7 34 4.8 6.4 0.00 0.00 0.00 97 1012.9
20260505000924 7 50 3.2 4.8 0.00 0.00 0.00 97 1012.7
20260504233850 7 340 3.2 3.2 0.00 0.00 0.00 97 1012.9
20260504232836 7 83 0.0 3.2 0.00 0.00 0.00 97 1013.3
20260504232329 7 71 3.2 3.2 0.00 0.00 0.00 97 1013.2
20260504231821 7 309 0.0 1.6 0.00 0.00 0.00 97 1013.3
20260504231313 7 35 3.2 3.2 0.00 0.00 0.00 97 1013.2
20260504230805 7 52 4.8 6.4 0.00 0.00 0.00 97 1013.3
20260504230258 7 65 3.2 4.8 0.00 0.00 0.00 97 1013.2
20260504225750 7 75 4.8 4.8 0.00 0.00 0.00 96 1013.2
20260504225242 7 57 4.8 6.4 0.00 0.00 0.00 96 1013.4
20260504224734 7 81 4.8 6.4 0.00 0.00 0.00 96 1013.4
20260504224227 7 99 3.2 3.2 0.00 0.00 0.00 96 1013.6
20260504223719 7 81 4.8 4.8 0.00 0.00 0.00 95 1013.3
20260504222704 8 44 0.0 4.8 0.00 0.00 0.00 86 1013.3
20260504222156 8 358 3.2 4.8 0.00 0.00 0.00 88 1013.0
20260504221649 8 354 3.2 3.2 0.00 0.00 0.00 88 1013.2
20260504221142 8 2 3.2 3.2 0.00 0.00 0.00 87 1013.5
20260504220634 8 357 3.2 3.2 0.00 0.00 0.00 88 1013.6
20260504220127 8 349 3.2 4.8 0.00 0.00 0.00 88 1013.4
20260504215620 8 6 3.2 3.2 0.00 0.69 0.69 89 1013.7
20260504215112 8 24 1.6 1.6 0.00 0.69 0.69 89 1013.7
20260504214604 8 332 3.2 4.8 0.00 0.69 0.69 88 1013.9
20260504214057 8 347 0.0 4.8 0.00 0.69 0.69 89 1013.7
20260504213550 8 343 3.2 3.2 0.00 0.69 0.69 89 1013.8
20260504213042 8 14 1.6 3.2 0.00 0.69 0.69 91 1013.6
20260504212535 8 329 4.8 6.4 0.00 0.69 0.69 89 1013.5
20260504212027 7 337 4.8 6.4 0.00 0.69 0.69 91 1013.6
20260504211520 7 340 4.8 6.4 0.00 0.69 0.69 93 1013.5
20260504211011 7 344 3.2 4.8 0.00 0.69 0.69 95 1013.9
20260504205956 7 1 3.2 3.2 0.00 0.69 0.69 96 1014.1
20260504205449 7 25 3.2 4.8 0.00 0.69 0.69 95 1014.3
20260504204941 7 27 6.4 8.0 0.00 0.69 0.69 95 1014.0
20260504204433 7 84 3.2 3.2 0.00 0.69 0.69 95 1013.9
20260504203925 7 326 3.2 3.2 0.00 0.69 0.69 94 1014.1
20260504203418 7 44 6.4 6.4 0.00 0.69 0.69 93 1014.0
20260504202910 8 24 4.8 8.0 0.00 0.69 0.69 91 1013.9
20260504202402 7 253 0.0 3.2 0.00 0.69 0.69 94 1014.2
20260504201854 7 327 3.2 4.8 0.00 0.69 0.69 94 1014.2
20260504201347 7 8 3.2 3.2 0.00 0.69 0.69 94 1014.3
20260504200840 7 325 1.6 3.2 0.00 0.69 0.69 96 1014.1
20260504200332 7 344 3.2 3.2 0.00 0.69 0.69 96 1014.3
20260504195824 7 345 3.2 3.2 0.00 0.69 0.69 97 1014.3
20260504195316 7 344 3.2 3.2 0.00 0.69 0.69 97 1014.2
20260504194809 8 332 1.6 3.2 0.00 0.69 0.69 97 1014.3
20260504194301 8 40 3.2 4.8 0.00 0.69 0.69 97 1014.1
20260504193754 8 89 3.2 4.8 0.00 0.69 0.69 97 1014.2
20260504193246 8 62 3.2 3.2 0.00 0.69 0.69 97 1014.1
20260504192738 8 79 3.2 3.2 0.00 0.69 0.69 97 1014.3
20260504192231 8 78 3.2 4.8 0.00 0.69 0.69 97 1014.3
20260504191723 8 75 1.6 3.2 0.00 0.69 0.69 97 1014.3
20260504191216 8 54 3.2 4.8 0.00 0.69 0.69 97 1014.5
20260504190708 8 53 3.2 4.8 0.00 0.69 0.69 96 1014.3
20260504185147 8 60 8.0 8.0 0.00 0.69 0.69 96 1014.7
20260504184639 8 85 3.2 4.8 0.00 0.69 0.69 96 1014.1
20260504184131 8 36 4.8 4.8 0.00 0.69 0.69 95 1014.0
20260504183623 8 94 4.8 6.4 0.00 0.69 0.69 95 1014.7
20260504183116 8 86 1.6 1.6 0.00 0.69 0.69 95 1014.5
20260504182608 8 85 3.2 3.2 0.00 0.69 0.69 95 1014.3
20260504182101 8 85 3.2 4.8 0.00 0.69 0.69 94 1014.3
20260504181553 8 118 3.2 4.8 0.00 0.69 0.69 94 1014.3
20260504181045 8 99 1.6 4.8 0.00 0.69 0.69 93 1014.6
20260504180031 8 95 4.8 4.8 0.00 0.69 0.69 92 1014.3
20260504175016 9 112 4.8 6.4 0.00 0.69 0.69 91 1014.5
20260504174508 9 96 6.4 6.4 0.00 0.69 0.69 88 1014.3
20260504174001 9 101 6.4 6.4 0.00 0.69 0.69 90 1014.5
20260504173453 9 117 4.8 4.8 0.00 0.69 0.69 89 1014.8
20260504172946 9 116 3.2 4.8 0.00 0.69 0.69 90 1014.7
20260504172438 9 148 3.2 4.8 0.00 0.69 0.69 89 1014.7
20260504171931 9 127 6.4 6.4 0.00 0.69 0.69 89 1014.5
20260504171423 9 160 4.8 8.0 0.00 0.69 0.69 89 1014.5
20260504170915 9 166 4.8 8.0 0.00 0.69 0.69 89 1014.8
20260504170408 9 139 4.8 4.8 0.00 0.69 0.69 90 1014.7
20260504160238 10 182 11.3 16.1 0.05 0.69 0.69 76 1015.2
20260504151124 9 207 4.8 25.7 0.10 0.66 0.66 78 1015.7
20260504150617 9 285 4.8 11.3 0.10 0.64 0.64 79 1015.8
20260504150109 9 274 3.2 25.7 0.08 0.64 0.64 80 1015.7
20260504140953 10 34 3.2 6.4 0.13 0.56 0.56 81 1016.1
20260504140445 10 336 6.4 14.5 0.13 0.56 0.56 82 1015.9
20260504130821 10 204 4.8 17.7 0.13 0.43 0.43 91 1016.0
20260504130314 10 180 9.7 17.7 0.10 0.43 0.43 90 1016.1
20260504120142 12 180 0.0 4.8 0.05 0.33 0.33 80 1015.7
20260504110518 11 196 4.8 8.0 0.05 0.28 0.28 78 1015.7